Location: ???????????
(55.5758°N, 38.4970°E)
Time: 17:24:17
(UTC+00:00)

NOSS 3-1 (C) - Pass Details

Date: 15 November 2025
Orbit: 619 x 1583 km, 63.4° (Epoch: 01 December)

Event Time Altitude Azimuth Distance (km) Brightness Sun altitude
Exits shadow 02:50:30 31° 286° (WNW) 1,419 3.8 -18.0°
Maximum altitude 02:52:49 49° 342° (NNW) 1,133 3.7 -17.7°
Drops below altitude 10° 02:59:16 10° 57° (ENE) 2,890 6.7 -16.8°
Sets 03:02:22 0° 63° (ENE) 4,012 7.6 -16.3°
